Weather in Kamenka

Russia / Saratov Oblast     52°02′23″N   43°56′58″E
temp.,
°C
wind,
m/s
gust,
m/s
humid.,
%
clouds,
%
prec.,
mm/h
press.,
hPa
HPBL,
m
13 april, tue
tue1301:00+10ese4136448 0.0 1030216
04:00+8ese4136680 0.0 1030213
07:00+8ese512669 0.0 1031199
10:00+14se7124527 0.0 1030457
13:00+19se79306 0.0 10291011
16:00+19se7929100 0.0 10281246
19:00+16ese4943100 0.0 1028204
22:00+12ese495854 0.0 1028133
14 april, wed
wed1401:00+9ese5126434 0.0 1027197
04:00+7ese411685 0.0 1026155
07:00+7ese512690 0.0 1025184
10:00+13ese610464 0.0 1024419
13:00+17se783371 0.0 10231033
16:00+18se67305 0.0 10221424
19:00+16ese47431 0.0 1021149
22:00+12ese46595 0.0 102183
15 april, thu
thu1501:00+10ese48675 0.0 1020115
04:00+9ese477499 0.0 1020103
07:00+8e477950 0.0 1019110
10:00+14ese5857100 0.0 1018335
13:00+19ese674290 0.0 10171045
16:00+20se56362 0.0 10161836
19:00+17ese354899 0.0 101683
22:00+13e356173 0.0 101654
16 april, fri
fri1601:00+12ese3467100 0.0 101538
04:00+10ese336690 0.0 101523
07:00+10e336899 0.0 101533
10:00+15e3453100 0.0 1015373
13:00+19e334298 0.0 10161361
16:00+20ene343479 0.0 10152441
19:00+18ene344441 0.0 101566
22:00+14ne385892 0.0 1016177
17 april, sat
sat1701:00+12nne356978 0.0 101684
04:00+11ene5118168 0.0 1018284
07:00+10ene61181100 0.0 1019422
10:00+11ene796957 0.0 1020650
13:00+11ne685698 0.0 1021972
16:00+12ne783570 0.1 10221453
19:00+10ne710380 0.0 1024928
22:00+7ne814480 0.0 1027753